Tracking 29967 objects as of 5-Dec-2024
HD Live streaming from Space Station
objects crossing your sky now

STARLINK-31066

Track STARLINK-31066 now!
10-day predictions
STARLINK-31066 is classified as:


NORAD ID: 58676
Int'l Code: 2023-211K
Perigee: 565.4 km
Apogee: 567.0 km
Inclination: 43.0 °
Period: 95.8 minutes
Semi major axis: 6937 km
RCS: Unknown
Launch date: December 29, 2023
Source: United States (US)
Launch site: AIR FORCE EASTERN TEST RANGE (AFETR)
Your satellite tracking list
Your tracking list is empty




NASA's NSSDC Master Catalog

Two Line Element Set (TLE):
1 58676U 23211K   24340.36388489 -.00000170  00000-0  24964-5 0  9992
2 58676  43.0029 210.5361 0001180 270.8543  89.2164 15.02533636 52897
Source of the keplerian elements: AFSPC